Regional Weather Roundup
Issued by NWS

Home | Current Version | Previous Version | Graphics & Text | Print | Product List | Glossary On
Versions: 1 2 3 4 5 6 7 8 9 10 11 12 13 14 15 16 17 18 19 20 21 22 23 24 25 26 27 28 29 30 31 32 33 34 35 36 37 38 39 40 41 42 43 44 45 46 47 48 49 50
138
ASUS43 KLOT 150608
RWRIL

ILLINOIS REGIONAL WEATHER ROUNDUP
NATIONAL WEATHER SERVICE CHICAGO/ROMEOVILLE IL
1200 AM CST FRI DEC 15 2017

NOTE: "FAIR" INDICATES FEW OR NO CLOUDS BELOW 12,000 FEET WITH NO
SIGNIFICANT WEATHER AND/OR OBSTRUCTIONS TO VISIBILITY.

* THESE STATIONS ARE NOT UNDER NWS QUALITY CONTROL. THEY ALSO MAY NOT
  REPORT WEATHER SUCH AS PRECIPITATION OR FOG.

ILZ001-002-007-009-015-016-024-150700-
NORTHWEST ILLINOIS

CITY           SKY/WX    TMP DP  RH WIND       PRES   REMARKS
MOLINE         CLOUDY    27  17  66 SW7       30.04F WCI  19
6HR MIN TEMP:  26; 6HR MAX TEMP:  27;

STERLING*        N/A     25  17  72 MISG      30.02F
SAVANNA*       CLOUDY    25  17  71 SW8       30.02F WCI  17
$$

ILZ003-004-008-010-011-017-018-150700-
NORTH CENTRAL ILLINOIS

CITY           SKY/WX    TMP DP  RH WIND       PRES   REMARKS
ROCKFORD       FLURRIES  23  16  74 SW7       30.01F WCI  15
6HR MIN TEMP:  15; 6HR MAX TEMP:  23; 6HR PCP: TRACE;

FREEPORT*      CLOUDY    23  17  77 SW8       30.00F WCI  14
ROCHELLE*      CLOUDY    22  16  78 SW6       30.01F WCI  14
DE KALB*       CLOUDY    22  15  74 SW7       30.00F WCI  14
PERU*          CLOUDY    22  16  78 SW5       30.04F WCI  15
$$

ILZ005-006-012>014-019>023-150700-
NORTHEAST ILLINOIS

CITY           SKY/WX    TMP DP  RH WIND       PRES   REMARKS
CHICAGO-OHARE  CLOUDY    21  11  65 SW6       30.00F WCI  13
6HR MIN TEMP:  20; 6HR MAX TEMP:  23;

CHICAGO-MIDWAY CLOUDY    21  12  68 SW6       30.03F WCI  13
6HR MIN TEMP:  19; 6HR MAX TEMP:  24;

AURORA         CLOUDY    20  12  71 S5        30.01F WCI  13
6HR MIN TEMP:  13; 6HR MAX TEMP:  20;

LANSING*       PTCLDY    14  11  87 CALM      30.04F
JOLIET*        CLOUDY    19  15  85 CALM      30.04F
WAUKEGAN       CLOUDY    21  13  71 SW5       29.98F WCI  15
6HR MIN TEMP:  11; 6HR MAX TEMP:  21;

DUPAGE AIRPORT CLOUDY    19  13  77 SW7       30.00F WCI  10
6HR MIN TEMP:  14; 6HR MAX TEMP:  20;

KANKAKEE*      CLEAR     15   9  75 CALM      30.06F
WHEELING       CLOUDY    23  12  62 SW5       30.02F WCI  17
6HR MIN TEMP:  22; 6HR MAX TEMP:  23;

MORRIS*        CLOUDY    17  11  80 S3        30.03F
ROMEOVILLE*    CLOUDY    18  13  81 SW5       30.02F WCI  11
NORTHERLY ISL    N/A     23  12  62 SW3         N/A
$$

LMZ740>746-150700-
SOUTHERN LAKE MICHIGAN

STATION/POSITION SKY/WX   TEMP    WIND        PRES    VSBY  WAVE
                          AIR SEA DIR/SP/G                  HT/PER
                          (F)     (DEG/KT/KT) (MB)    (MI)  (FT/S)
HARRISON CRIB              25     260/ 11/ 13   N/A
BURNHAM HARBOR             23     250/  3/  8   N/A
CALUMET HARBOR                    200/  5/  6 1016.2F
BURNS HARBOR               23     220/  5/  7 1017.6F
MICHIGAN CITY              22     200/ 11/ 12   N/A
$$

ILZ025>027-034>036-040-047-049-050-058-095>099-150700-
WEST-CENTRAL ILLINOIS

CITY           SKY/WX    TMP DP  RH WIND       PRES   REMARKS
QUINCY         CLOUDY    28  20  71 SW6       30.08F WCI  22
GALESBURG*     CLOUDY    26  19  77 SW6       30.06F WCI  19
MACOMB*        CLOUDY    26  19  74 SW5       30.09F WCI  20
JACKSONVILLE*  CLOUDY    27  17  66 SW5       30.09F WCI  22
PITTSFIELD*    CLOUDY    29  20  69 W5        30.10F WCI  24
$$

ILZ028>032-037-038-041>044-048-051>054-059>061-150700-
CENTRAL ILLINOIS

CITY           SKY/WX    TMP DP  RH WIND       PRES   REMARKS
PONTIAC        CLOUDY    17  13  88 CALM      30.06F
BLOOMINGTON    CLOUDY    17  12  80 SW5       30.05F WCI  10
DECATUR        PTCLDY    23  17  78 SW5       30.07F WCI  17
PEORIA         CLOUDY    26  17  68 SW6       30.06F WCI  19
6HR MIN TEMP:  23; 6HR MAX TEMP:  27;

LACON*         CLOUDY    23  17  78 SW3       30.04F
LINCOLN*       PTCLDY    24  18  80 CALM      30.08F
SPRINGFIELD    MOCLDY    23  16  74 W7        30.09F WCI  15
6HR MIN TEMP:  23; 6HR MAX TEMP:  29;

TAYLORVILLE    CLOUDY    26  17  70 W5        30.09F WCI  20
6HR MIN TEMP:  26; 6HR MAX TEMP:  28;

$$

ILZ033-039-045-046-055>057-062-063-150700-
EAST-CENTRAL ILLINOIS

CITY           SKY/WX    TMP DP  RH WIND       PRES   REMARKS
CHAMPAIGN      CLOUDY    20  15  81 SW5       30.06F WCI  13
DANVILLE*      CLOUDY    20  15  81 NW3       30.03F
RANTOUL*       PTCLDY    21  16  82 CALM      30.06F
MATTOON        CLOUDY    23  18  81 W6        30.07F WCI  16
PARIS*         CLOUDY    26  19  74 W6        30.08F WCI  19
$$

ILZ079-100>102-150700-
SOUTHWEST ILLINOIS

CITY           SKY/WX    TMP DP  RH WIND       PRES   REMARKS
ALTON          CLOUDY    27  21  80 W5        30.11F WCI  21
BELLEVILLE     CLOUDY    29  19  64 NW6       30.10F WCI  23
CAHOKIA*       MOCLDY    28  18  66 NW7       30.12F WCI  21
SPARTA*        CLOUDY    30  22  72 CALM      30.13F
$$

ILZ064>066-069>071-074>076-080>082-084>086-088>090-092>094-150700-
SOUTH-CENTRAL ILLINOIS

CITY           SKY/WX    TMP DP  RH WIND       PRES   REMARKS
CARBONDALE     CLOUDY    30  22  72 CALM      30.12F
6HR MIN TEMP:  30; 6HR MAX TEMP:  32;

CAIRO*         CLOUDY    32  24  72 W6        30.14F WCI  26
EFFINGHAM*     CLOUDY    29  21  71 W5        30.11F WCI  24
MARION         CLOUDY    32  21  64 CALM      30.12F
MT. VERNON     CLOUDY    30  21  69 CALM      30.11F
CENTRALIA*     CLOUDY    31  22  69 NW3       30.10F
SALEM*         CLOUDY    31  20  65 CALM      30.11F
METROPOLIS*    CLOUDY    32  22  66 CALM      30.14S
$$

ILZ067-068-072-073-078-083-087-091-150700-
SOUTHEAST ILLINOIS

CITY           SKY/WX    TMP DP  RH WIND       PRES   REMARKS
LAWRENCEVILLE  CLOUDY    30  22  72 W5        30.10F WCI  25
FLORA*         CLOUDY    31  21  66 NW3       30.11F
FAIRFIELD*     CLOUDY    31  21  67 CALM      30.10F
HARRISBURG*    CLOUDY    31  22  67 W5        30.12F WCI  26
ROBINSON*      CLOUDY    28  22  78 W5        30.11S WCI  23
CARMI*         CLOUDY    31  24  78 W6        30.10F WCI  25
$$

ABBREVIATIONS USED IN REMARKS
   TC - TEMPERATURE IN CELSIUS
  WCI - WIND CHILL INDEX
   HX - HEAT INDEX
  VSB - VISIBILITY
$$





USA.gov is the U.S. government's official web portal to all federal, state and local government web resources and services.